Content
SEND FEEDBACK

Daily
Averages
Monthly
Summary
United States of America

LINCOLN - UNION COLLEGE, NEBRASKA


Home > North America > United States > Nebraska
Elevation: 1260 feet     Latitude: 40 46N     Longitude: 096 40W

WEATHER
 
SELECT A DAY
Number of Records: 200,934;   Date Range: 1/1/95 - 4/22/14
 
SHARE

PRINT THIS DATA

[ ← Previous Day ]
WEATHER ALMANAC - JANUARY 23, 2013
[ Next Day → ]
[ °C ]   °F
Weather ElementAverageHighLow
Temperature19.9 °F33.1 °F (12:54 pm)10.9 °F (2:54 am)
Dewpoint10.8 °F17.1 °F (10:54 am)3.9 °F (11:54 pm)
Humidity68.8 %81 % (2:54 am)50 % (12:54 pm)
Barometer30.36 in30.55 in (11:54 pm)30.23 in (4:54 am)
Wind Speed9.6 mph18.4 mph (2:54 pm)
Wind Gust23 mph (10:54 am)
Weather ElementAverage
Visibility9.7 mi
Wind DirectionESE (101.3 °)

Weather ElementTotal
Precipitation---
Heating Degree Days43 (Base 65)
Averaged from 23 records on January 23, 2013
WEATHER CONDITIONS BREAKOUT
WIND DIRECTION BREAKOUT
WEATHER BY HOUR - JANUARY 23, 2013
[ °C ]   °F
Local TimeTemperatureDewpointHumidityBarometerVisibilityWind DirectionWind SpeedGust SpeedPrecipitationEventsConditions
1:54 AM14.0 °F8.1 °F77 %30.27 in10.0 miCalmClear
2:54 AM10.9 °F6.1 °F81 %30.26 in10.0 miSouth (170°)5.8 mphClear
3:54 AM10.9 °F6.1 °F81 %30.25 in10.0 miSouth (180°)5.8 mphClear
4:54 AM12.9 °F7.0 °F77 %30.23 in10.0 miCalmClear
5:54 AM12.9 °F7.0 °F77 %30.24 in10.0 miCalmClear
6:54 AM12.9 °F7.0 °F77 %30.25 in10.0 miCalmClear
7:54 AM10.9 °F6.1 °F81 %30.27 in8.0 miCalmClear
8:54 AM16.0 °F10.0 °F77 %30.28 in8.0 miCalmClear
9:54 AM23.0 °F16.0 °F74 %30.30 in7.0 miNorth (360°)8.1 mphClear
10:54 AM28.9 °F17.1 °F61 %30.31 in10.0 miNNE (20°)12.7 mph23.0 mphClear
11:54 AM30.9 °F16.0 °F54 %30.32 in10.0 miNNE (30°)11.5 mphClear
12:54 PM33.1 °F16.0 °F50 %30.32 in10.0 miNorth (10°)16.1 mphClear
1:54 PM33.1 °F16.0 °F50 %30.33 in10.0 miNorth (360°)17.3 mphClear
2:54 PM30.9 °F15.1 °F52 %30.34 in10.0 miNNE (20°)18.4 mphClear
3:54 PM30.0 °F15.1 °F54 %30.37 in10.0 miNorth (10°)17.3 mphClear
4:54 PM26.1 °F15.1 °F63 %30.39 in10.0 miNorth (10°)16.1 mphClear
5:54 PM23.0 °F14.0 °F68 %30.42 in10.0 miNorth (360°)11.5 mphClear
6:54 PM21.0 °F12.9 °F71 %30.45 in10.0 miNorth (360°)16.1 mphClear
7:54 PM18.0 °F10.9 °F74 %30.48 in10.0 miNorth (10°)10.4 mphClear
8:54 PM17.1 °F9.0 °F71 %30.53 in10.0 miNorth (360°)12.7 mphClear
9:54 PM15.1 °F8.1 °F74 %30.53 in10.0 miNorth (10°)12.7 mphClear
10:54 PM14.0 °F6.1 °F71 %30.54 in10.0 miNNE (30°)13.8 mphClear
11:54 PM12.9 °F3.9 °F67 %30.55 in10.0 miNNE (30°)13.8 mphClear
Hourly data recorded from KLNK, located 7.16 miles away from Lincoln - Union College, Nebraska







STORIES FROM OUR PARTNERS